MFX547 ULLI-EKCH

Flight info

Callsign MFX547
Flight time N/A
Altitude 34000
Route TURAL1A/28R N0450F340 TURA1A TURAL L870 RESMO DCT KUNUX DCT SUVIX DCT NEKET DCT VSB DCT LATVI DCT KOTAM DCT TIDVU TIDV2C EKCH/22L
Aircraft A321/M-SDE2E3FGHIJ3J4J5M1RWXYZ/LB1D1

Departure

Time N/A
Airport Pulkovo Airport (ULLI)

Arrival

Time 2026-05-03 20:48
Airport Copenhagen Kastrup Airport (EKCH)
Time Latitude Longitude Altitude Speed Heading
2026-05-03 20:31 55.44758 13.07623 6108 ft 263 kts 265°
2026-05-03 20:31 55.44597 13.04926 6025 ft 262 kts 266°
2026-05-03 20:32 55.44438 13.02254 5942 ft 262 kts 266°
2026-05-03 20:32 55.44249 12.99153 5844 ft 261 kts 265°
2026-05-03 20:32 55.44058 12.96009 5745 ft 261 kts 267°
2026-05-03 20:33 55.44120 12.92833 5640 ft 259 kts 282°
2026-05-03 20:33 55.44627 12.89822 5543 ft 258 kts 292°
2026-05-03 20:33 55.45310 12.86902 5443 ft 257 kts 294°
2026-05-03 20:33 55.46019 12.84030 5342 ft 257 kts 298°
2026-05-03 20:34 55.47124 12.81577 5227 ft 256 kts 323°
2026-05-03 20:34 55.48740 12.80287 5126 ft 258 kts 349°
2026-05-03 20:34 55.50525 12.80423 5027 ft 261 kts 13°
2026-05-03 20:34 55.52241 12.81379 4905 ft 262 kts 17°
2026-05-03 20:35 55.53959 12.82442 4753 ft 261 kts 17°
2026-05-03 20:35 55.55653 12.83498 4604 ft 260 kts 19°
2026-05-03 20:35 55.57335 12.84680 4454 ft 260 kts 20°
2026-05-03 20:35 55.59012 12.85897 4304 ft 259 kts 20°
2026-05-03 20:36 55.60652 12.87088 4156 ft 258 kts 20°
2026-05-03 20:36 55.62287 12.88407 4004 ft 258 kts 27°
2026-05-03 20:36 55.63791 12.90211 3852 ft 259 kts 37°
2026-05-03 20:36 55.65140 12.92252 3706 ft 259 kts 39°
2026-05-03 20:37 55.66480 12.94381 3554 ft 256 kts 40°
2026-05-03 20:37 55.67773 12.96438 3402 ft 246 kts 40°
2026-05-03 20:37 55.69028 12.98413 3243 ft 230 kts 37°
2026-05-03 20:37 55.70303 13.00095 3088 ft 231 kts 37°
2026-05-03 20:38 55.71502 13.01905 2991 ft 220 kts 39°
2026-05-03 20:38 55.72600 13.03651 2983 ft 206 kts 40°
2026-05-03 20:38 55.73659 13.05356 2987 ft 206 kts 40°
2026-05-03 20:38 55.74717 13.07062 2989 ft 207 kts 40°
2026-05-03 20:39 55.75786 13.08762 2987 ft 206 kts 35°
2026-05-03 20:39 55.77078 13.09711 2969 ft 202 kts
2026-05-03 20:39 55.78418 13.09154 2987 ft 202 kts 329°
2026-05-03 20:39 55.79390 13.07375 2992 ft 205 kts 299°
2026-05-03 20:40 55.80025 13.05190 3075 ft 188 kts 301°
2026-05-03 20:40 55.80619 13.03270 3010 ft 172 kts 292°
2026-05-03 20:40 55.80798 13.01296 3002 ft 153 kts 276°
2026-05-03 20:40 55.80832 12.99455 2983 ft 145 kts 274°
2026-05-03 20:41 55.80845 12.97675 2983 ft 143 kts 274°
2026-05-03 20:41 55.80631 12.95956 2978 ft 145 kts 246°
2026-05-03 20:41 55.80047 12.94461 2988 ft 147 kts 232°
2026-05-03 20:41 55.79349 12.93139 2989 ft 147 kts 229°
2026-05-03 20:42 55.78624 12.91852 2964 ft 148 kts 227°
2026-05-03 20:42 55.77887 12.90597 2869 ft 147 kts 226°
2026-05-03 20:42 55.77132 12.89355 2772 ft 147 kts 225°
2026-05-03 20:42 55.76373 12.88137 2646 ft 147 kts 224°
2026-05-03 20:43 55.75608 12.86933 2484 ft 147 kts 224°
2026-05-03 20:43 55.74835 12.85731 2448 ft 147 kts 224°
2026-05-03 20:43 55.74071 12.84551 2474 ft 147 kts 223°
2026-05-03 20:43 55.73293 12.83352 2500 ft 147 kts 223°
2026-05-03 20:44 55.72757 12.82527 2574 ft 144 kts 221°
2026-05-03 20:44 55.72004 12.81367 2520 ft 144 kts 221°
2026-05-03 20:44 55.71261 12.80222 2294 ft 135 kts 221°
2026-05-03 20:44 55.70586 12.79184 2085 ft 126 kts 221°
2026-05-03 20:45 55.69928 12.78169 1905 ft 123 kts 221°
2026-05-03 20:45 55.69292 12.77187 1741 ft 121 kts 221°
2026-05-03 20:45 55.68657 12.76208 1585 ft 121 kts 221°
2026-05-03 20:45 55.68022 12.75230 1432 ft 121 kts 221°
2026-05-03 20:46 55.67395 12.74263 1280 ft 120 kts 221°
2026-05-03 20:46 55.66768 12.73295 1126 ft 120 kts 221°
2026-05-03 20:46 55.66133 12.72313 967 ft 119 kts 222°
2026-05-03 20:46 55.65516 12.71355 799 ft 118 kts 222°
2026-05-03 20:47 55.64898 12.70400 662 ft 117 kts 221°
2026-05-03 20:47 55.64284 12.69463 500 ft 117 kts 221°
2026-05-03 20:47 55.63660 12.68523 340 ft 117 kts 222°
2026-05-03 20:47 55.63063 12.67563 173 ft 117 kts 221°
2026-05-03 20:48 55.62448 12.66615 41 ft 116 kts 222°
2026-05-03 20:48 55.61913 12.65785 14 ft 86 kts 221°
2026-05-03 20:48 55.61591 12.65290 15 ft 36 kts 221°
2026-05-03 20:48 55.61415 12.65013 15 ft 31 kts 222°
2026-05-03 20:49 55.61280 12.64723 15 ft 29 kts 244°
2026-05-03 20:49 55.61229 12.64496 15 ft 5 kts 252°
2026-05-03 20:49 55.61225 12.64473 15 ft 3 kts 253°
2026-05-03 20:49 55.61203 12.64353 15 ft 16 kts 252°
2026-05-03 20:50 55.61211 12.64129 16 ft 19 kts 317°
2026-05-03 20:50 55.61330 12.64167 15 ft 19 kts 34°
2026-05-03 20:50 55.61440 12.64296 16 ft 18 kts 33°
2026-05-03 20:50 55.61550 12.64424 15 ft 19 kts 33°
2026-05-03 20:51 55.61681 12.64573 15 ft 27 kts 33°
2026-05-03 20:51 55.61866 12.64785 15 ft 31 kts 32°
2026-05-03 20:51 55.62043 12.64990 15 ft 29 kts 32°
2026-05-03 20:51 55.62197 12.65167 16 ft 13 kts 31°
2026-05-03 20:52 55.62289 12.65197 18 ft 14 kts
2026-05-03 20:52 55.62384 12.65201 19 ft 11 kts
2026-05-03 20:52 55.62463 12.65193 19 ft 11 kts 350°
2026-05-03 20:52 55.62544 12.65170 19 ft 11 kts 354°
2026-05-03 20:53 55.62628 12.65178 19 ft 12 kts
2026-05-03 20:53 55.62693 12.65191 19 ft 3 kts
2026-05-03 20:53 55.62700 12.65190 19 ft 1 kts 354°
2026-05-03 20:53 55.62718 12.65185 19 ft 3 kts 352°
2026-05-03 20:54 55.62733 12.65182 19 ft 0 kts 356°